Погода в Высоком

Украина / Запорожская область     46°48′37″N   34°58′46″E
темп.,
°C
ветер,
м/с
пор.,
м/с
влажн.,
%
обл.,
%
осадки,
мм/ч
давл.,
гПа
погр.,
м
22 апреля, чт
чт2200:00+8юз37875 0.0 1020148
03:00+7юз23935 0.0 102041
06:00+6юз22945 0.0 102136
09:00+12ююз34732 0.0 1022525
12:00+15юз335310 0.0 10221465
15:00+17ююз344597 0.1 10211900
18:00+15ю575938 0.1 1021436
21:00+10ююз37812 0.3 1022129
23 апреля, пт
пт2300:00+9юз35820 0.0 102271
03:00+8юз34870 0.0 102253
06:00+7ююз358626 0.0 102283
09:00+13ююз5859100 0.0 1021596
12:00+16ю5651100 0.0 10201108
15:00+18ю674191 0.0 10181862
18:00+14ю5863100 0.0 1017478
21:00+12зюз4871100 0.1 1018293
24 апреля, сб
сб2400:00+10юз3780100 0.0 1017184
03:00+9зюз369294 0.1 1016264
06:00+8сз588614 0.6 1017581
09:00+10сз56630 0.6 1019906
12:00+14зсз79425 0.0 10192076
15:00+15з81135100 0.0 10192747
18:00+11сз9115217 0.0 10201502
21:00+7зсз49533 0.0 1022192
25 апреля, вс
вс2500:00+5сз355697 0.0 102398
03:00+4сз345896 0.0 102355
06:00+3сз2262100 0.0 102327
09:00+9зсз224492 0.0 1023694
12:00+12сз2334100 0.0 10221742
15:00+13ссз2232100 0.0 10211934
18:00+13ююв2239100 0.0 1020962
21:00+7ююз3559100 0.0 1021107
26 апреля, пн
пн2600:00+6юз3360100 0.0 102147
03:00+5з34637 0.0 101951
06:00+5з3468100 0.0 101972
09:00+10з464455 0.0 1019660
12:00+10зсз7775100 0.2 10191027
15:00+13з474421 0.2 10181975
18:00+12зсз563950 0.0 10182201
21:00+8з34525 0.0 101954